Location: Medlow Airstrip Trail, Medlow Bath NSW 2780, Australia
(33.6682°S, 150.3233°E)
Time: 10:47:39
(UTC+11:00)

Explorer 7 - Pass Details

Date: 17 September 2019
Orbit: 485 x 680 km, 50.3° (Epoch: 14 October)

Event Time Altitude Azimuth Distance (km) Brightness Sun altitude
Rises 19:02:45 0° 237° (WSW) 2,571 11.5 -15.7°
Reaches altitude 10° 19:05:01 10° 244° (WSW) 1,690 10.5 -16.1°
Maximum altitude 19:08:34 38° 313° (NW) 771 7.9 -16.9°
Enters shadow 19:11:22 15° 17° (NNE) 1,419 8.7 -17.4°
